Date String (YYYY-MM-DD hh:mm:ss) UTC,Instrument flags,Ambient pressure (hPa),Sample flow (lpm),Bypass flow (lpm),Sample temperature (°C),Ambient temperature (°C),ASC tube jacket temperature (°C),LED temperature (°C),Box temperature (°C),Sample RH (%),Span deviation,Mass concentration (μg/m³),Mass concentration (μg/m³),Mass concentration (μg/m³)
DateTimeUTC,F1_M11,P_M11,Q1_M11,Q2_M11,T1_M11,T2_M11,T3_M11,T4_M11,T5_M11,U1_M11,ZSPAN_M11,X0_M11,X2_M11,X1_M11
2022-04-05 22:00:00,,0815.4,5.00,0.00,24.6,23.8,00.0,33.7,26.3,10.4,0000.0,0009.06,0002.58,0001.04
2022-04-05 22:01:00,,0815.1,4.99,0.00,24.6,23.8,00.0,33.7,26.3,10.3,0000.0,0008.96,0002.64,0001.02
2022-04-05 22:02:00,,0815.1,5.01,0.00,24.5,23.7,00.0,33.7,26.2,10.3,0000.0,0009.04,0002.72,0001.03
2022-04-05 22:03:00,,0815.2,5.00,0.00,24.5,23.7,00.0,33.7,26.2,10.3,0000.0,0009.14,0002.76,0001.03
2022-04-05 22:04:00,,0815.2,4.99,0.00,24.5,23.7,00.0,33.6,26.1,10.2,0000.0,0009.33,0002.81,0001.03
2022-04-05 22:05:00,,0815.1,5.00,0.00,24.4,23.6,00.0,33.6,26.1,10.2,0000.0,0009.73,0002.89,0001.05
2022-04-05 22:06:00,,0815.2,5.03,0.00,24.4,23.6,00.0,33.6,26.1,10.3,0000.0,0009.98,0002.97,0001.06
2022-04-05 22:07:00,,0815.2,5.00,0.00,24.4,23.6,00.0,33.6,26.1,10.2,0000.0,0009.77,0003.03,0001.07
2022-04-05 22:08:00,,0815.2,5.01,0.00,24.4,23.5,00.0,33.6,26.0,10.3,0000.0,0009.81,0003.07,0001.09
2022-04-05 22:09:00,,0815.2,4.99,0.00,24.3,23.5,00.0,33.5,26.0,10.4,0000.0,0009.99,0003.03,0001.10
2022-04-05 22:10:00,,0815.1,5.00,0.00,24.3,23.5,00.0,33.5,26.0,10.1,0000.0,0009.59,0002.97,0001.11
2022-04-05 22:11:00,,0815.1,4.99,0.00,24.3,23.5,00.0,33.5,26.0,10.2,0000.0,0009.04,0002.95,0001.11
2022-04-05 22:12:00,,0815.2,5.00,0.00,24.3,23.5,00.0,33.5,26.0,10.2,0000.0,0009.33,0002.87,0001.12
2022-04-05 22:13:00,,0815.1,5.00,0.00,24.3,23.5,00.0,33.5,26.0,10.2,0000.0,0009.26,0002.84,0001.13
2022-04-05 22:14:00,,0815.1,5.00,0.00,24.3,23.6,00.0,33.5,26.0,10.2,0000.0,0008.89,0002.84,0001.14
2022-04-05 22:15:00,,0815.2,5.02,0.00,24.3,23.6,00.0,33.5,26.0,10.2,0000.0,0009.57,0002.88,0001.15
2022-04-05 22:16:00,,0815.2,5.00,0.00,24.3,23.5,00.0,33.4,26.0,10.0,0000.0,0011.09,0002.86,0001.15
2022-04-05 22:17:00,,0815.3,4.99,0.00,24.3,23.5,00.0,33.4,26.0,10.1,0000.0,0010.75,0002.79,0001.14
2022-04-05 22:18:00,,0815.3,5.00,0.00,24.3,23.5,00.0,33.4,26.0,10.1,0000.0,0011.28,0002.84,0001.13
2022-04-05 22:19:00,,0815.3,4.99,0.00,24.2,23.4,00.0,33.4,25.9,10.1,0000.0,0012.15,0002.88,0001.11
2022-04-05 22:20:00,,0815.3,5.00,0.00,24.2,23.3,00.0,33.4,25.8,10.0,0000.0,0012.41,0002.89,0001.10
2022-04-05 22:21:00,,0815.3,5.01,0.00,24.1,23.3,00.0,33.4,25.7,10.0,0000.0,0012.34,0002.90,0001.09
2022-04-05 22:22:00,,0815.3,5.00,0.00,24.1,23.3,00.0,33.3,25.7,10.1,0000.0,0012.46,0002.91,0001.09
2022-04-05 22:23:00,,0815.3,4.99,0.00,24.1,23.3,00.0,33.3,25.7,10.0,0000.0,0012.55,0002.95,0001.09
2022-04-05 22:24:00,,0816.0,4.99,0.00,24.1,23.3,00.0,33.3,25.8,10.1,0000.0,0012.86,0002.95,0001.09
2022-04-05 22:25:00,,0816.1,5.00,0.00,24.1,23.3,00.0,33.3,25.7,10.1,0000.0,0013.27,0003.02,0001.09
2022-04-05 22:26:00,,0816.0,5.01,0.00,24.1,23.4,00.0,33.3,25.7,10.3,0000.0,0013.34,0003.08,0001.09
2022-04-05 22:27:00,,0815.9,4.99,0.00,24.1,23.4,00.0,33.3,25.8,10.3,0000.0,0012.76,0003.15,0001.10
2022-04-05 22:28:00,,0815.9,4.99,0.00,24.1,23.4,00.0,33.3,25.8,10.0,0000.0,0012.94,0003.17,0001.10
2022-04-05 22:29:00,,0815.7,4.99,0.00,24.1,23.4,00.0,33.3,25.9,09.9,0000.0,0012.64,0003.13,0001.10
2022-04-05 22:30:00,,0815.8,5.00,0.00,24.2,23.5,00.0,33.2,25.9,10.0,0000.0,0011.83,0003.11,0001.11
2022-04-05 22:31:00,,0815.8,5.01,0.00,24.2,23.5,00.0,33.2,25.9,10.1,0000.0,0011.49,0003.16,0001.10
2022-04-05 22:32:00,,0815.8,5.00,0.00,24.2,23.6,00.0,33.2,25.9,10.0,0000.0,0011.31,0003.14,0001.10
2022-04-05 22:33:00,,0815.8,5.00,0.00,24.2,23.6,00.0,33.3,26.0,09.3,0000.0,0011.48,0003.09,0001.09
2022-04-05 22:34:00,,0815.8,5.00,0.00,24.3,23.6,00.0,33.3,25.9,09.2,0000.0,0011.62,0003.08,0001.08
2022-04-05 22:35:00,,0815.7,5.00,0.00,24.3,23.6,00.0,33.3,26.0,09.2,0000.0,0012.24,0003.06,0001.08
2022-04-05 22:36:00,,0816.0,5.00,0.00,24.3,23.6,00.0,33.3,26.0,09.4,0000.0,0012.57,0002.93,0001.06
2022-04-05 22:37:00,,0815.7,5.00,0.00,24.3,23.6,00.0,33.3,26.1,09.6,0000.0,0011.81,0002.93,0001.05
2022-04-05 22:38:00,,0815.7,5.01,0.00,24.3,23.5,00.0,33.3,26.1,09.5,0000.0,0010.92,0002.93,0001.05
2022-04-05 22:39:00,,0816.0,5.00,0.00,24.3,23.5,00.0,33.3,26.1,09.5,0000.0,0010.53,0002.98,0001.07
2022-04-05 22:40:00,,0815.9,5.00,0.00,24.3,23.4,00.0,33.3,26.2,09.6,0000.0,0010.76,0003.00,0001.07
2022-04-05 22:41:00,,0815.9,5.00,0.00,24.3,23.4,00.0,33.3,26.2,09.7,0000.0,0011.25,0002.97,0001.06
2022-04-05 22:42:00,,0815.8,5.00,0.00,24.3,23.4,00.0,33.3,26.1,09.7,0000.0,0011.88,0002.93,0001.05
2022-04-05 22:43:00,,0815.8,4.99,0.00,24.3,23.4,00.0,33.3,26.1,09.8,0000.0,0012.74,0003.03,0001.05
2022-04-05 22:44:00,,0815.9,5.00,0.00,24.3,23.4,00.0,33.3,26.1,09.8,0000.0,0012.78,0003.08,0001.07
2022-04-05 22:45:00,,0815.8,5.00,0.00,24.3,23.4,00.0,33.3,26.1,09.9,0000.0,0013.29,0003.14,0001.08
2022-04-05 22:46:00,,0815.8,4.99,0.00,24.3,23.4,00.0,33.3,26.1,09.5,0000.0,0012.80,0003.13,0001.07
2022-04-05 22:47:00,,0815.8,5.00,0.00,24.3,23.4,00.0,33.3,26.1,09.5,0000.0,0012.16,0003.16,0001.08
2022-04-05 22:48:00,,0815.8,5.01,0.00,24.3,23.3,00.0,33.3,26.2,09.3,0000.0,0012.28,0003.19,0001.09
2022-04-05 22:49:00,,0815.9,5.01,0.00,24.3,23.3,00.0,33.3,26.2,09.3,0000.0,0012.25,0003.18,0001.08
2022-04-05 22:50:00,,0816.0,5.00,0.00,24.3,23.3,00.0,33.3,26.1,09.3,0000.0,0012.08,0003.15,0001.07
2022-04-05 22:51:00,,0816.2,5.00,0.00,24.3,23.3,00.0,33.3,26.1,09.5,0000.0,0012.31,0003.15,0001.07
2022-04-05 22:52:00,,0816.0,4.99,0.00,24.3,23.3,00.0,33.3,26.0,09.6,0000.0,0011.82,0003.09,0001.07
2022-04-05 22:53:00,,0816.2,5.00,0.00,24.3,23.3,00.0,33.3,26.0,09.7,0000.0,0011.07,0003.08,0001.07
2022-04-05 22:54:00,,0816.3,5.00,0.00,24.3,23.3,00.0,33.3,26.0,09.7,0000.0,0010.39,0003.03,0001.08
2022-04-05 22:55:00,,0816.1,5.00,0.00,24.3,23.3,00.0,33.3,26.0,09.8,0000.0,0010.39,0003.04,0001.07
2022-04-05 22:56:00,,0816.1,5.00,0.00,24.3,23.3,00.0,33.3,26.0,09.7,0000.0,0010.88,0003.11,0001.06
2022-04-05 22:57:00,,0816.1,4.99,0.00,24.2,23.4,00.0,33.3,26.0,09.5,0000.0,0012.15,0003.21,0001.09
2022-04-05 22:58:00,,0816.2,5.00,0.00,24.2,23.4,00.0,33.3,26.0,09.6,0000.0,0014.05,0003.28,0001.09
2022-04-05 22:59:00,,0816.2,5.01,0.00,24.2,23.4,00.0,33.3,25.9,09.7,0000.0,0014.75,0003.25,0001.08
